Le nostre stazioni meteo in Italia

Pubblicità
Il mio iltempo24.it
Rolo, Italia (16143): Temperatura & dewpoint: 15.06.2019 00:00:00 - 21.06.2019 00:00:00 (CEST)Rolo, Italia (16143): velocità del vento: 15.06.2019 00:00:00 - 21.06.2019 00:00:00 (CEST)Rolo, Italia (16143): direzione del vento: 15.06.2019 00:00:00 - 21.06.2019 00:00:00 (CEST)Rolo, Italia (16143): reduced air pressure: 15.06.2019 00:00:00 - 21.06.2019 00:00:00 (CEST)Rolo, Italia (16143): precipitazioni: 15.06.2019 00:00:00 - 21.06.2019 00:00:00 (CEST)
Data & Tempo tt [°C] td [°C] ff [km/h] ff [kn] dd ppp [hPa] rr [mm]
21.06.2019 00:00:00 - - - - - - -
20.06.2019 23:00:00 23,6 6,4 14 8 OSO 1012,2 0,0
20.06.2019 22:00:00 24,5 6,3 10 5 SO 1011,9 0,0
20.06.2019 21:00:00 24,7 8,2 8 4 SO 1011,3 0,0
20.06.2019 20:00:00 28,0 7,8 12 7 OSO 1010,7 0,0
20.06.2019 19:00:00 30,4 7,6 17 9 SO 1010,4 0,0
20.06.2019 18:00:00 32,0 11,2 10 6 OSO 1010,0 0,0
20.06.2019 17:00:00 33,0 10,4 6 3 S 1010,2 0,0
20.06.2019 16:00:00 33,1 10,4 7 4 SSO 1010,5 0,0
20.06.2019 15:00:00 32,7 10,1 6 3 S 1011,0 0,0
20.06.2019 14:00:00 31,5 10,8 6 3 OSO 1011,7 0,0
20.06.2019 13:00:00 31,0 11,4 9 5 OSO 1012,2 0,0
20.06.2019 12:00:00 29,9 10,4 8 4 OSO 1012,3 0,0
20.06.2019 11:00:00 28,7 10,4 7 4 O 1012,2 0,0
20.06.2019 10:00:00 27,8 11,8 4 2 ONO 1012,2 0,0
20.06.2019 09:00:00 25,5 10,9 5 3 O 1012,4 0,0
20.06.2019 08:00:00 23,0 11,1 3 2 SSO 1012,4 0,0
20.06.2019 07:00:00 19,7 12,0 6 4 SSO 1012,3 0,0
20.06.2019 06:00:00 16,2 10,7 3 2 SO 1012,3 0,0
20.06.2019 05:00:00 16,8 10,6 5 3 OSO 1012,0 0,0
20.06.2019 04:00:00 16,9 10,5 5 3 OSO 1012,0 0,0
20.06.2019 03:00:00 15,9 11,7 4 2 N 1011,9 0,0
20.06.2019 02:00:00 16,7 11,6 2 1 N 1012,1 0,0
20.06.2019 01:00:00 19,5 10,2 7 4 O 1011,6 0,0
20.06.2019 00:00:00 21,9 9,4 8 4 O 1011,5 0,0
19.06.2019 23:00:00 22,6 9,7 6 4 OSO 1011,2 0,0
19.06.2019 22:00:00 24,5 11,1 9 5 OSO 1011,1 0,0
19.06.2019 21:00:00 26,5 11,4 9 5 O 1010,6 0,0
19.06.2019 20:00:00 29,9 12,3 11 6 O 1010,3 0,0
19.06.2019 19:00:00 31,8 15,7 5 3 NO 1010,0 0,0
19.06.2019 18:00:00 32,7 14,8 6 3 O 1010,1 0,0
19.06.2019 17:00:00 32,7 14,3 7 4 O 1010,6 0,0
19.06.2019 16:00:00 32,8 13,9 9 5 ONO 1011,0 0,0
19.06.2019 15:00:00 32,5 13,2 10 5 ONO 1011,4 0,0
19.06.2019 14:00:00 31,8 15,7 11 6 ONO 1012,1 0,0
19.06.2019 13:00:00 30,5 17,2 10 5 ONO 1012,6 0,0
19.06.2019 12:00:00 29,4 17,6 9 5 ONO 1012,7 0,0
19.06.2019 11:00:00 28,5 17,4 9 5 ONO 1012,9 0,0
19.06.2019 10:00:00 27,0 16,9 9 5 O 1013,1 0,0
19.06.2019 09:00:00 25,5 16,4 10 5 O 1013,3 0,0
19.06.2019 08:00:00 24,4 17,1 7 4 OSO 1013,2 0,0
19.06.2019 07:00:00 21,5 17,9 4 2 S 1013,1 0,0
19.06.2019 06:00:00 19,0 16,6 5 3 S 1013,1 0,0
19.06.2019 05:00:00 18,5 16,3 7 4 ENE 1012,9 0,0
19.06.2019 04:00:00 19,0 16,6 1 1 N 1013,0 0,0
19.06.2019 03:00:00 19,2 16,6 5 3 NNE 1013,0 0,0
19.06.2019 02:00:00 20,0 17,2 5 3 S 1013,3 0,0
19.06.2019 01:00:00 20,6 16,8 2 1 SE 1013,4 0,0
19.06.2019 00:00:00 21,3 16,9 5 3 ESE 1013,4 0,0
18.06.2019 23:00:00 22,6 16,4 9 5 ESE 1013,4 0,0
18.06.2019 22:00:00 23,0 16,5 9 5 ESE 1013,3 0,0
18.06.2019 21:00:00 24,7 17,7 4 2 ESE 1012,9 0,0
18.06.2019 20:00:00 28,6 16,8 5 3 ESE 1012,8 0,0
18.06.2019 19:00:00 31,6 15,5 4 2 ESE 1012,8 0,0
18.06.2019 18:00:00 31,7 15,2 5 3 SSE 1013,0 0,0
18.06.2019 17:00:00 32,1 14,7 8 4 E 1012,9 0,0
18.06.2019 16:00:00 31,9 15,4 9 5 E 1013,5 0,0
18.06.2019 15:00:00 31,7 15,6 10 6 E 1014,1 0,0
18.06.2019 14:00:00 31,4 15,0 7 4 ESE 1014,7 0,0
18.06.2019 13:00:00 30,3 15,2 5 3 SSO 1015,1 0,0
18.06.2019 12:00:00 29,8 15,5 8 4 NE 1015,5 0,0
18.06.2019 11:00:00 29,2 16,0 7 4 ESE 1015,7 0,0
18.06.2019 10:00:00 27,5 16,8 7 4 ENE 1015,7 0,0
18.06.2019 09:00:00 26,0 17,4 7 4 E 1015,9 0,0
18.06.2019 08:00:00 24,1 16,6 2 1 SSE 1015,8 0,0
18.06.2019 07:00:00 20,6 16,8 1 1 N 1015,7 0,0
18.06.2019 06:00:00 16,1 14,1 0 0 NNE 1015,3 0,0
18.06.2019 05:00:00 16,4 14,2 4 2 NE 1015,5 0,0
18.06.2019 04:00:00 16,6 14,4 6 3 NE 1015,4 0,0
18.06.2019 03:00:00 17,3 14,6 3 2 ENE 1015,5 0,0
18.06.2019 02:00:00 17,7 14,8 6 3 ENE 1015,7 0,0
18.06.2019 01:00:00 18,5 15,4 5 3 ENE 1015,6 0,0
18.06.2019 00:00:00 18,2 14,9 7 4 ENE 1015,6 0,0
17.06.2019 23:00:00 21,4 16,1 5 3 ESE 1014,9 0,0
17.06.2019 22:00:00 22,0 14,6 8 4 E 1014,6 0,0
17.06.2019 21:00:00 23,9 14,9 8 4 E 1014,0 0,0
17.06.2019 20:00:00 27,7 15,0 8 5 ENE 1013,7 0,0
17.06.2019 19:00:00 29,6 14,6 12 7 ENE 1013,7 0,0
17.06.2019 18:00:00 30,6 16,6 10 6 E 1013,8 0,0
17.06.2019 17:00:00 30,8 16,4 6 4 E 1013,9 0,0
17.06.2019 16:00:00 30,8 16,8 8 4 ESE 1014,4 0,0
17.06.2019 15:00:00 29,4 17,9 7 4 E 1015,1 0,0
17.06.2019 14:00:00 29,2 18,0 8 5 ENE 1015,4 0,0
17.06.2019 13:00:00 30,2 16,6 6 3 ESE 1015,7 0,0
17.06.2019 12:00:00 29,6 17,1 11 6 E 1016,0 0,0
17.06.2019 11:00:00 28,7 16,6 13 7 E 1016,2 0,0
17.06.2019 10:00:00 27,9 16,8 15 8 ESE 1016,1 0,0
17.06.2019 09:00:00 26,2 17,3 12 6 NE 1016,1 0,0
17.06.2019 08:00:00 23,5 15,8 3 2 ONO 1015,7 0,0
17.06.2019 07:00:00 20,3 15,3 5 3 OSO 1015,3 0,0
17.06.2019 06:00:00 15,3 12,8 5 3 OSO 1014,9 0,0
17.06.2019 05:00:00 14,7 12,2 2 1 OSO 1014,4 0,0
17.06.2019 04:00:00 15,9 13,0 8 4 NNE 1014,3 0,0
17.06.2019 03:00:00 16,1 13,0 4 2 SO 1014,0 0,0
17.06.2019 02:00:00 15,6 12,7 4 2 OSO 1014,0 0,0
17.06.2019 01:00:00 17,2 13,5 3 2 S 1013,8 0,0
17.06.2019 00:00:00 20,3 11,8 8 5 SO 1013,2 0,0
16.06.2019 23:00:00 20,8 13,0 7 4 SSO 1013,0 0,0
16.06.2019 22:00:00 22,7 12,0 7 4 O 1012,4 0,0
16.06.2019 21:00:00 24,8 11,7 7 4 O 1012,1 0,0
16.06.2019 20:00:00 28,5 12,0 7 4 OSO 1012,2 0,0
16.06.2019 19:00:00 30,2 11,7 9 5 O 1012,1 0,0
16.06.2019 18:00:00 30,9 11,8 12 6 O 1012,1 0,0
16.06.2019 17:00:00 31,2 12,1 10 5 ONO 1012,4 0,0
16.06.2019 16:00:00 30,9 13,2 14 8 O 1012,7 0,0
16.06.2019 15:00:00 30,4 14,1 12 7 ONO 1013,2 0,0
16.06.2019 14:00:00 29,8 14,0 14 7 ONO 1013,7 0,0
16.06.2019 13:00:00 28,7 14,5 17 9 ONO 1014,0 0,0
16.06.2019 12:00:00 27,4 16,4 16 9 O 1014,2 0,0
16.06.2019 11:00:00 26,2 16,2 13 7 O 1014,4 0,0
16.06.2019 10:00:00 24,5 16,2 16 9 O 1014,3 0,0
16.06.2019 09:00:00 23,6 16,1 13 7 O 1014,4 0,0
16.06.2019 08:00:00 22,2 15,3 12 7 O 1014,0 0,0
16.06.2019 07:00:00 20,1 14,9 6 4 O 1013,7 0,0
16.06.2019 06:00:00 17,8 14,1 6 4 O 1013,7 0,0
16.06.2019 05:00:00 18,0 14,1 10 6 O 1013,3 0,0
16.06.2019 04:00:00 19,8 14,2 10 5 O 1013,1 0,0
16.06.2019 03:00:00 20,5 14,6 10 6 O 1013,1 0,0
16.06.2019 02:00:00 20,9 14,8 10 5 O 1013,4 0,0
16.06.2019 01:00:00 21,0 14,9 10 6 O 1013,6 0,0
16.06.2019 00:00:00 22,9 13,1 16 9 OSO 1013,2 0,0
15.06.2019 23:00:00 22,1 15,7 5 3 O 1013,0 0,0
15.06.2019 22:00:00 22,0 17,4 8 4 O 1012,7 0,0
15.06.2019 21:00:00 24,7 19,1 1 1 O 1011,7 0,0
15.06.2019 20:00:00 28,7 17,6 4 2 ONO 1011,8 0,0
15.06.2019 19:00:00 29,7 17,5 6 3 ONO 1012,1 0,0
15.06.2019 18:00:00 30,7 17,4 6 3 O 1012,2 0,0
15.06.2019 17:00:00 30,1 17,2 10 6 O 1012,6 0,0
15.06.2019 16:00:00 30,5 17,2 12 7 O 1012,9 0,0
15.06.2019 15:00:00 30,0 17,1 9 5 O 1013,3 0,0
15.06.2019 14:00:00 28,5 16,4 14 8 ONO 1013,6 0,0
15.06.2019 13:00:00 28,6 17,8 13 7 O 1013,9 0,0
15.06.2019 12:00:00 27,7 17,2 12 6 O 1014,1 0,0
15.06.2019 11:00:00 27,0 17,2 13 7 O 1014,2 0,0
15.06.2019 10:00:00 25,5 14,9 15 8 O 1014,2 0,0
15.06.2019 09:00:00 24,7 14,5 13 7 O 1014,1 0,0
15.06.2019 08:00:00 23,3 15,4 4 2 SO 1013,7 0,0
15.06.2019 07:00:00 20,7 15,5 4 2 OSO 1013,4 0,0
15.06.2019 06:00:00 17,7 14,6 5 3 O 1013,2 0,0
15.06.2019 05:00:00 17,3 14,4 6 3 NNE 1013,1 0,0
15.06.2019 04:00:00 18,4 15,3 5 3 NNO 1013,6 0,0
15.06.2019 03:00:00 20,1 15,5 5 3 O 1013,5 0,0
15.06.2019 02:00:00 22,1 15,0 9 5 ESE 1013,4 0,0
15.06.2019 01:00:00 22,6 15,2 13 7 E 1013,7 0,0
15.06.2019 00:00:00 22,6 16,6 8 5 ENE 1014,4 0,0

tt = Temperatura
td = dewpoint
ff = velocità del vento
dd = direzione del vento
ppp = reduced air pressure
rr = precipitazioni

Stazioni seguenti

WeatherPro
AMSI
MeteoEarth